Weather in Neve Zohar

Israel     31°09′10″N   35°21′55″E
temp.,
°C
wind,
m/s
gust,
m/s
humid.,
%
clouds,
%
prec.,
mm/h
press.,
hPa
HPBL,
m
16 april, fri
fri1600:00+22wnw223326 0.0 101415
03:00+21nw113097 0.0 101411
06:00+20n332953 0.0 101412
09:00+25nne682012 0.0 1014469
12:00+30ne65127 0.0 1013918
15:00+32ne441017 0.0 10111561
18:00+29nnw77210 0.0 1011575
21:00+25nw34190 0.0 101357
17 april, sat
sat1700:00+23nw12190 0.0 101411
03:00+21wnw11220 0.0 101311
06:00+20w22250 0.0 101411
09:00+24e11201 0.0 1015271
12:00+29ne22150 0.0 1014692
15:00+33ne23126 0.0 10121788
18:00+32nne46145 0.0 1012847
21:00+28n33255 0.0 101418
18 april, sun
sun1800:00+25wnw22315 0.0 101511
03:00+23ssw11346 0.0 101411
06:00+22nne11330 0.0 101511
09:00+28e22214 0.0 1016268
12:00+32ese22150 0.0 1015648
15:00+36ene22110 0.0 10131419
18:00+35ne44110 0.0 1012746
21:00+32n44140 0.0 101335
19 april, mon
mon1900:00+30n44200 0.0 101330
03:00+28n442288 0.0 101225
06:00+26nne2225100 0.0 101311
09:00+31ene2217100 0.0 1013294
12:00+35se3313100 0.0 1012638
15:00+38s359100 0.0 10091877
18:00+37se3410100 0.0 1008220
21:00+33wnw4513100 0.0 100953
20 april, tue
tue2000:00+25w71240100 0.0 1011223
03:00+20wnw61171100 0.0 1012297
06:00+18wnw4575100 0.0 1014234
09:00+21nw2258100 0.0 1016669
12:00+26ne223990 0.0 10151072
15:00+28nw342894 0.0 10131130
18:00+25nnw432969 0.0 1014617
21:00+20nw22380 0.0 1016305